TimeCDT,TemperatureF,Dew PointF,Humidity,Sea Level PressureIn,VisibilityMPH,Wind Direction,Wind SpeedMPH,Gust SpeedMPH,PrecipitationIn,Events,Conditions,WindDirDegrees,DateUTC
12:15 AM,55.4,48.2,77,30.22,10.0,South,5.8,-,N/A,,Clear,180,2013-06-30 05:15:00
12:35 AM,55.4,48.2,77,30.22,10.0,South,5.8,-,N/A,,Clear,190,2013-06-30 05:35:00
12:55 AM,53.6,48.2,82,30.22,10.0,South,4.6,-,N/A,,Clear,190,2013-06-30 05:55:00
1:15 AM,55.4,46.4,72,30.23,10.0,SSW,3.5,-,N/A,,Clear,200,2013-06-30 06:15:00
1:35 AM,55.4,46.4,72,30.23,10.0,Calm,Calm,-,N/A,,Clear,0,2013-06-30 06:35:00
1:55 AM,55.4,46.4,72,30.23,10.0,SSW,3.5,-,N/A,,Clear,210,2013-06-30 06:55:00
2:35 AM,53.6,46.4,77,30.23,10.0,SSW,3.5,-,N/A,,Clear,200,2013-06-30 07:35:00
2:55 AM,53.6,46.4,77,30.22,10.0,SSW,8.1,-,N/A,,Clear,200,2013-06-30 07:55:00
3:15 AM,53.6,46.4,77,30.22,10.0,South,5.8,-,N/A,,Clear,190,2013-06-30 08:15:00
3:35 AM,53.6,46.4,77,30.22,10.0,SSW,5.8,-,N/A,,Clear,200,2013-06-30 08:35:00
3:55 AM,53.6,46.4,77,30.21,10.0,SSW,5.8,-,N/A,,Clear,210,2013-06-30 08:55:00
4:15 AM,53.6,46.4,77,30.22,10.0,Calm,Calm,-,N/A,,Clear,0,2013-06-30 09:15:00
4:35 AM,51.8,46.4,82,30.22,10.0,WSW,4.6,-,N/A,,Clear,250,2013-06-30 09:35:00
4:55 AM,53.6,46.4,77,30.21,10.0,Calm,Calm,-,N/A,,Clear,0,2013-06-30 09:55:00
5:15 AM,53.6,46.4,77,30.21,10.0,Calm,Calm,-,N/A,,Clear,0,2013-06-30 10:15:00
5:35 AM,53.6,46.4,77,30.22,10.0,West,4.6,-,N/A,,Clear,270,2013-06-30 10:35:00
5:55 AM,53.6,46.4,77,30.22,10.0,SW,3.5,-,N/A,,Clear,220,2013-06-30 10:55:00
6:15 AM,53.6,46.4,77,30.22,10.0,Calm,Calm,-,N/A,,Clear,0,2013-06-30 11:15:00
6:35 AM,53.6,48.2,82,30.22,10.0,Calm,Calm,-,N/A,,Partly Cloudy,0,2013-06-30 11:35:00
6:55 AM,55.4,50.0,82,30.22,10.0,Calm,Calm,-,N/A,,Partly Cloudy,0,2013-06-30 11:55:00
7:15 AM,59.0,48.2,67,30.22,10.0,Calm,Calm,-,N/A,,Partly Cloudy,0,2013-06-30 12:15:00
7:35 AM,62.6,50.0,63,30.23,10.0,Calm,Calm,-,N/A,,Clear,0,2013-06-30 12:35:00
7:55 AM,62.6,51.8,68,30.23,10.0,WNW,4.6,-,N/A,,Clear,290,2013-06-30 12:55:00
8:15 AM,64.4,50.0,59,30.23,10.0,Calm,Calm,-,N/A,,Clear,0,2013-06-30 13:15:00
8:35 AM,64.4,50.0,59,30.23,10.0,Calm,Calm,-,N/A,,Clear,0,2013-06-30 13:35:00
8:55 AM,66.2,50.0,56,30.23,10.0,Calm,Calm,-,N/A,,Clear,0,2013-06-30 13:55:00
9:15 AM,66.2,53.6,64,30.24,10.0,NE,5.8,-,N/A,,Clear,50,2013-06-30 14:15:00
9:35 AM,66.2,53.6,64,30.24,10.0,NNE,5.8,-,N/A,,Scattered Clouds,30,2013-06-30 14:35:00
9:55 AM,66.2,53.6,64,30.24,10.0,NNE,3.5,-,N/A,,Scattered Clouds,20,2013-06-30 14:55:00
10:15 AM,68.0,55.4,64,30.24,10.0,North,3.5,-,N/A,,Clear,360,2013-06-30 15:15:00
10:35 AM,69.8,57.2,64,30.24,10.0,NE,6.9,-,N/A,,Clear,40,2013-06-30 15:35:00
10:55 AM,69.8,55.4,60,30.23,10.0,NE,4.6,-,N/A,,Clear,50,2013-06-30 15:55:00
11:15 AM,71.6,51.8,50,30.23,10.0,North,3.5,-,N/A,,Clear,10,2013-06-30 16:15:00
11:35 AM,71.6,53.6,53,30.23,10.0,East,4.6,-,N/A,,Clear,80,2013-06-30 16:35:00
11:55 AM,73.4,53.6,50,30.23,10.0,NNE,5.8,-,N/A,,Clear,30,2013-06-30 16:55:00
12:15 PM,73.4,53.6,50,30.23,10.0,ENE,8.1,-,N/A,,Clear,60,2013-06-30 17:15:00
12:35 PM,73.4,53.6,50,30.23,10.0,NE,9.2,-,N/A,,Clear,40,2013-06-30 17:35:00
12:55 PM,73.4,53.6,50,30.23,10.0,ENE,6.9,-,N/A,,Clear,60,2013-06-30 17:55:00
1:15 PM,73.4,53.6,50,30.23,10.0,NNE,9.2,-,N/A,,Clear,30,2013-06-30 18:15:00
1:35 PM,73.4,50.0,44,30.23,10.0,Calm,Calm,-,N/A,,Clear,0,2013-06-30 18:35:00
1:55 PM,73.4,51.8,47,30.23,10.0,ENE,3.5,-,N/A,,Clear,60,2013-06-30 18:55:00
2:15 PM,75.2,51.8,44,30.22,10.0,NNE,3.5,-,N/A,,Clear,30,2013-06-30 19:15:00
2:35 PM,75.2,50.0,41,30.23,10.0,North,5.8,-,N/A,,Clear,350,2013-06-30 19:35:00
2:55 PM,75.2,53.6,47,30.23,10.0,NE,9.2,-,N/A,,Clear,50,2013-06-30 19:55:00
3:15 PM,75.2,50.0,41,30.22,10.0,NNE,3.5,-,N/A,,Clear,30,2013-06-30 20:15:00
3:35 PM,75.2,51.8,44,30.22,10.0,NE,8.1,-,N/A,,Clear,40,2013-06-30 20:35:00
3:55 PM,75.2,53.6,47,30.22,10.0,NE,10.4,-,N/A,,Clear,40,2013-06-30 20:55:00
4:15 PM,75.2,53.6,47,30.22,10.0,ENE,10.4,-,N/A,,Clear,70,2013-06-30 21:15:00
4:35 PM,75.2,53.6,47,30.22,10.0,NE,9.2,16.1,N/A,,Clear,50,2013-06-30 21:35:00
4:55 PM,75.2,53.6,47,30.22,10.0,ENE,9.2,-,N/A,,Clear,60,2013-06-30 21:55:00
5:15 PM,75.2,53.6,47,30.21,10.0,ENE,8.1,-,N/A,,Clear,60,2013-06-30 22:15:00
5:35 PM,75.2,51.8,44,30.22,10.0,NE,6.9,-,N/A,,Clear,50,2013-06-30 22:35:00
5:55 PM,75.2,53.6,47,30.22,10.0,NNE,5.8,-,N/A,,Clear,20,2013-06-30 22:55:00
6:15 PM,75.2,51.8,44,30.22,10.0,NE,10.4,-,N/A,,Clear,50,2013-06-30 23:15:00
6:35 PM,75.2,50.0,41,30.22,10.0,ENE,10.4,-,N/A,,Clear,70,2013-06-30 23:35:00
6:55 PM,73.4,53.6,50,30.21,10.0,ESE,6.9,-,N/A,,Clear,120,2013-06-30 23:55:00
7:15 PM,73.4,51.8,47,30.21,10.0,East,8.1,-,N/A,,Clear,90,2013-07-01 00:15:00
7:35 PM,73.4,51.8,47,30.21,10.0,East,5.8,-,N/A,,Partly Cloudy,100,2013-07-01 00:35:00
7:55 PM,73.4,53.6,50,30.21,10.0,ENE,10.4,-,N/A,,Clear,70,2013-07-01 00:55:00
8:15 PM,71.6,53.6,53,30.21,10.0,East,9.2,-,N/A,,Clear,80,2013-07-01 01:15:00
8:35 PM,69.8,51.8,53,30.21,10.0,ENE,10.4,-,N/A,,Clear,70,2013-07-01 01:35:00
8:55 PM,68.0,51.8,56,30.22,6.0,East,9.2,-,N/A,,Haze,80,2013-07-01 01:55:00
9:15 PM,64.4,53.6,68,30.22,1.0,SE,5.8,-,N/A,,Haze,140,2013-07-01 02:15:00
9:35 PM,62.6,53.6,72,30.23,10.0,SE,5.8,-,N/A,,Mostly Cloudy,140,2013-07-01 02:35:00
9:55 PM,62.6,53.6,72,30.24,10.0,SSE,6.9,-,N/A,,Mostly Cloudy,160,2013-07-01 02:55:00
10:15 PM,60.8,53.6,77,30.24,10.0,SSE,5.8,-,N/A,,Mostly Cloudy,160,2013-07-01 03:15:00
10:35 PM,59.0,53.6,82,30.24,10.0,South,5.8,-,N/A,,Partly Cloudy,190,2013-07-01 03:35:00
10:55 PM,59.0,51.8,77,30.24,10.0,South,6.9,-,N/A,,Clear,190,2013-07-01 03:55:00
11:15 PM,59.0,51.8,77,30.24,10.0,South,4.6,-,N/A,,Clear,170,2013-07-01 04:15:00
11:35 PM,59.0,51.8,77,30.24,10.0,South,3.5,-,N/A,,Partly Cloudy,180,2013-07-01 04:35:00
11:55 PM,59.0,50.0,72,30.24,10.0,South,4.6,-,N/A,,Clear,170,2013-07-01 04:55:00